Lid_Strength_Index
1 1 1 1 0 0 0 0 -0 -1 -0 -0 -0 -0 0 0 -0 -0 0 0 1 1 0 1 1 0 1 1 1 1 2 2 4 3 1 1 1 1 0 -0 -1 -0 -0
1 1 1 1 0 1 0 0 -0 0 -1 -0 -0 -0 -1 -0 -0 0 1 1 1 1 1 1 1 1 1 1 1 1 1 1 2 4 2 2 1 1 0 1 0 -0 -0
1 1 1 1 1 1 1 0 0 0 0 -0 -1 0 0 0 0 0 1 0 1 1 1 1 1 1 1 1 1 1 1 1 2 2 3 1 1 1 1 1 1 0 -0
1 1 1 1 1 1 1 1 0 -0 -0 0 -0 -0 0 1 2 1 1 0 0 0 0 1 1 1 1 1 1 1 1 2 2 2 3 2 2 1 1 2 2 1 1
1 2 2 1 1 1 1 0 0 -0 -0 -1 -0 0 0 2 3 2 1 1 1 1 0 0 0 -0 -0 1 1 1 1 2 2 3 3 3 3 3 3 2 3 2 1
2 2 1 1 1 1 1 0 0 0 0 -0 0 0 0 2 3 3 3 2 0 1 1 1 0 -0 0 0 0 0 1 2 3 3 3 4 3 2 2 2 3 3 4
2 2 1 1 1 1 1 1 1 1 -0 1 1 0 1 2 4 4 3 2 1 1 1 1 1 0 1 2 2 1 1 0 0 2 4 3 3 2 2 2 2 3 3
2 2 1 1 1 1 1 1 1 0 1 1 1 0 0 4 5 4 3 1 0 0 0 0 1 1 4 4 4 3 2 1 1 3 4 4 2 2 1 2 2 2 1
2 2 1 1 1 1 1 1 1 1 0 1 0 0 1 4 6 5 3 1 1 1 0 2 3 4 6 5 5 5 4 5 3 2 2 2 2 2 1 1 2 3 4
2 2 1 1 1 1 1 1 0 0 0 1 0 0 2 4 6 6 5 2 2 2 1 1 4 6 7 6 7 6 7 7 7 6 5 3 2 0 1 0 1 3 4
1 1 1 1 1 1 1 1 0 1 0 1 -0 1 1 3 5 6 5 3 4 3 2 2 2 6 7 8 7 7 8 7 7 6 4 4 5 3 3 1 1 2 5
1 1 1 1 1 1 1 1 0 0 1 1 0 2 2 2 5 6 5 4 3 3 2 2 3 6 7 7 8 7 7 7 6 6 6 6 6 5 3 2 2 2 3
1 1 1 1 1 1 1 1 2 0 2 3 4 3 2 2 4 5 5 4 3 3 2 3 5 6 7 6 6 6 6 5 6 7 5 5 4 4 3 2 2 2 3
2 1 1 1 2 1 2 4 5 6 5 6 4 3 3 4 5 5 4 3 3 3 3 3 3 4 5 5 5 5 5 5 5 5 5 4 3 3 3 3 3 3 5
2 2 2 2 3 6 7 7 8 8 8 7 5 5 5 6 7 8 8 6 5 5 6 2 3 4 5 5 5 5 5 5 5 4 4 4 4 4 3 2 3 3 5
2 3 3 4 6 7 8 9 11 11 11 12 11 8 7 9 9 9 9 9 8 7 5 4 5 5 5 5 5 5 4 4 4 4 4 4 4 4 4 3 2 3 4
2 3 4 4 4 7 7 8 10 11 10 11 11 10 10 11 9 9 9 9 9 7 3 4 4 4 5 5 5 5 5 4 4 4 4 4 4 4 3 3 3 3 3
3 6 4 4 5 5 5 5 7 8 8 8 11 10 11 10 9 8 9 7 4 6 4 4 4 4 5 5 5 5 5 4 5 5 5 4 4 4 3 3 3 3 3
5 5 5 5 5 5 5 6 6 4 4 6 6 11 8 10 9 9 8 4 4 5 5 4 3 4 4 4 4 4 4 5 5 5 5 5 4 3 3 3 2 4 4
4 6 5 6 6 6 6 6 6 5 4 5 6 7 5 6 5 3 3 3 4 5 5 4 3 3 3 3 4 4 4 5 6 6 5 4 4 3 3 3 3 2 2
5 5 6 6 7 6 6 5 5 5 5 6 8 9 12 8 4 4 4 4 5 5 4 4 4 4 4 4 4 4 5 6 6 6 5 4 4 3 3 3 2 2 2
5 5 6 6 4 5 5 5 5 6 6 7 8 8 10 7 5 5 4 4 4 3 4 3 4 3 4 4 4 5 5 6 6 6 5 5 4 3 3 3 3 2 2
5 6 7 5 5 6 6 5 6 6 6 7 7 8 6 5 5 5 4 4 3 3 3 3 4 4 4 4 4 5 6 7 7 6 5 6 5 3 3 3 3 3 3
6 6 6 5 5 6 6 6 7 8 7 6 7 5 5 4 5 5 4 4 3 3 3 3 3 4 4 5 5 5 6 8 9 7 7 6 5 3 3 3 3 3 3
6 6 7 6 7 6 7 6 6 7 6 6 6 5 6 5 5 5 5 4 3 3 3 4 3 5 5 6 6 7 9 12 11 11 8 5 3 3 4 4 4 3 3
6 6 7 5 6 6 6 7 7 6 6 6 5 5 5 5 5 5 4 4 4 4 4 4 4 5 6 6 7 10 11 12 10 12 10 4 4 5 4 5 4 4 3